15min,AgWx,beryljct,423,30MAR2019:00:00:00,31.4,12.84,31.8,31.3,31.4,32.1,30.8,71,73,69,0.428,23.1,23.8,22.3,2.696,3.4,172,10,5.1,-0.00004,-0.00003,.,46.7,25,0,0,35.7,13.00,0.00,0.00
15min,AgWx,beryljct,423,30MAR2019:00:15:00,31.1,12.83,32.8,31.8,31.5,32.0,30.9,72,73,71,0.437,23.6,24.0,22.8,1.447,2.0,170,5.5,3.0,-0.00010,-0.00012,.,46.6,25,0,0,35.6,13.00,0.00,0.00
15min,AgWx,beryljct,423,30MAR2019:00:30:00,30.7,12.81,32.2,32.1,32.3,32.7,31.8,72,73,71,0.448,24.3,24.7,23.9,3.157,1.3,106,32,3.9,-0.00014,-0.00019,.,46.6,25,0,0,35.8,13.00,0.00,0.00
15min,AgWx,beryljct,423,30MAR2019:00:45:00,30.6,12.81,30.7,30.3,31.2,32.2,30.2,75,82,73,0.436,24.1,25.4,23.5,4.713,4.3,54,6.9,6.3,-0.00002,-0.00002,.,46.5,25,0,0,35.2,13.00,0.00,0.00
15min,AgWx,beryljct,423,30MAR2019:01:00:00,30.5,12.77,30.6,30.1,30.2,31.0,29.7,77,78,74,0.420,23.8,24.6,22.9,3.113,3.7,22,16,5.0,-0.00004,-0.00004,.,46.5,25,0,0,35.7,13.00,0.00,0.00
15min,AgWx,beryljct,423,30MAR2019:01:15:00,30.2,12.8,29.5,29.5,29.0,29.9,28.4,78,80,75,0.430,23.1,23.8,22.1,2.214,2.6,318,14,3.3,-0.00008,-0.00009,.,46.4,25,0,0,35.7,13.00,0.00,0.00
15min,AgWx,beryljct,423,30MAR2019:01:30:00,29.8,12.78,28.5,28.2,29.3,29.8,28.2,78,79,77,0.408,23.2,23.9,22.2,3.464,3.0,333,10,4.5,-0.00007,-0.00008,.,46.4,26,0,0,35.4,13.00,0.00,0.00
15min,AgWx,beryljct,423,30MAR2019:01:45:00,29.4,12.76,28.8,28.6,27.9,28.6,27.4,81,82,78,0.438,22.7,23.9,21.9,5.371,4.2,315,9.6,6.0,-0.00004,-0.00004,.,46.3,26,0,0,35.7,13.01,0.00,0.00
15min,AgWx,beryljct,423,30MAR2019:02:00:00,29.1,12.62,28.2,27.7,28.0,28.7,27.7,81,82,80,0.415,22.9,23.9,22.4,5.809,5.6,320,6.7,6.4,-0.00002,-0.00001,.,46.2,25,0,0,35.4,13.00,0.00,0.00
15min,AgWx,beryljct,423,30MAR2019:02:15:00,28.8,12.73,27.7,26.9,27.0,27.7,26.5,83,84,81,0.418,22.4,22.8,22.2,5.875,5.1,332,8.9,6.3,-0.00003,-0.00003,.,46.2,25,0,0,35.4,13.01,0.01,0.00
15min,AgWx,beryljct,423,30MAR2019:02:30:00,28.5,12.75,26.9,26.8,27.0,27.2,26.6,84,85,84,0.419,22.9,23.2,22.5,3.814,5.4,315,8.1,6.7,-0.00003,-0.00003,.,46.1,25,0,0,35.4,13.01,0.00,0.00
15min,AgWx,beryljct,423,30MAR2019:02:45:00,28.1,12.75,28.5,27.5,26.7,27.5,26.4,85,86,84,0.434,22.9,23.9,22.3,5.634,4.8,308,5.9,6.3,-0.00005,-0.00005,.,46.1,25,0,0,35.5,13.01,0.00,0.00
15min,AgWx,beryljct,423,30MAR2019:03:00:00,28.1,12.73,29.5,29.4,28.6,29.9,27.6,83,85,78,0.442,24.0,24.9,23.2,5.02,5.6,314,8.9,8.7,-0.00002,-0.00002,.,46.0,25,0,0,35.7,13.01,0.00,0.00
15min,AgWx,beryljct,423,30MAR2019:03:15:00,28.3,12.73,29.0,28.6,29.2,29.8,28.3,80,82,78,0.422,23.8,24.7,22.6,3.464,4.3,320,12,5.8,-0.00004,-0.00004,.,45.9,25,0,0,35.6,13.00,0.00,0.00
15min,AgWx,beryljct,423,30MAR2019:03:30:00,28.3,12.72,26.6,27.1,28.5,29.7,27.1,80,83,78,0.396,23.2,24.5,21.5,3.464,3.4,323,9.7,4.6,-0.00006,-0.00007,.,45.9,25,0,0,35.6,13.01,0.01,0.00
15min,AgWx,beryljct,423,30MAR2019:03:45:00,27.9,12.73,28.9,27.8,27.4,28.9,26.1,82,85,78,0.426,22.5,24.3,20.7,2.938,3.0,334,9.6,4.6,-0.00008,-0.00009,.,45.8,25,0,0,35.3,13.01,0.00,0.00
15min,AgWx,beryljct,423,30MAR2019:04:00:00,27.4,12.71,27.3,26.8,26.5,27.8,25.7,82,84,79,0.408,21.8,23.3,20.2,3.902,3.3,325,7.5,4.5,-0.00007,-0.00008,.,45.7,25,0,0,35.6,13.01,0.00,0.00
15min,AgWx,beryljct,423,30MAR2019:04:15:00,26.8,12.57,26.7,25.9,25.6,26.8,25.0,83,85,80,0.399,21.2,22.1,19.8,4.187,4.0,309,4.8,4.8,-0.00005,-0.00005,.,45.6,25,0,0,35.6,13.01,0.00,0.00
15min,AgWx,beryljct,423,30MAR2019:04:30:00,26.5,12.68,28.0,27.8,27.1,28.0,26.0,82,84,79,0.409,22.2,22.8,21.5,3.42,4.3,306,4.7,5.1,-0.00004,-0.00004,.,45.6,25,0,0,35.7,13.01,0.00,0.00
15min,AgWx,beryljct,423,30MAR2019:04:45:00,26.3,12.7,28.2,27.7,27.6,28.1,27.1,80,82,78,0.418,22.4,23.2,21.3,3.135,2.7,314,13,4.1,-0.00008,-0.00009,.,45.5,25,0,0,35.6,13.01,0.00,0.00
15min,AgWx,beryljct,423,30MAR2019:05:00:00,26.3,12.7,28.6,27.7,27.8,28.4,27.0,82,83,80,0.417,23.0,23.9,21.7,0.723,1.6,325,29,3.4,-0.00013,-0.00016,.,45.4,25,0,0,35.4,13.01,0.00,0.00
15min,AgWx,beryljct,423,30MAR2019:05:15:00,26.1,12.71,28.5,26.9,27.7,28.4,26.5,83,84,80,0.419,23.2,23.9,21.8,0.767,0.1,353,0.4,0.9,-0.00021,-0.00033,.,45.4,25,0,0,35.7,13.01,0.00,0.00
15min,AgWx,beryljct,423,30MAR2019:05:30:00,25.8,12.71,27.9,27.0,27.2,27.9,26.2,84,86,83,0.420,23.1,24.0,21.6,1.403,0.9,78,25,3.6,-0.00016,-0.00022,.,45.3,25,0,0,35.5,13.01,0.00,0.00
15min,AgWx,beryljct,423,30MAR2019:05:45:00,25.6,12.7,27.1,26.2,26.7,27.1,26.2,85,86,85,0.411,22.8,23.2,22.3,1.513,1.6,94,6.2,3.7,0.00004,0.00007,.,45.2,25,0,0,35.4,13.01,0.00,0.00
15min,AgWx,beryljct,423,30MAR2019:06:00:00,25.4,12.7,27.2,26.6,26.0,26.6,25.3,86,88,85,0.432,22.5,23.6,21.8,0.943,0.4,105,0.5,1.4,0.00001,0.00002,.,45.1,25,0,0,35.5,13.01,0.00,0.00
15min,AgWx,beryljct,423,30MAR2019:06:15:00,25.3,12.69,27.9,27.1,26.9,27.2,26.6,87,88,86,0.435,23.6,23.9,23.1,1.315,0.3,106,0.0,1.6,0.00001,0.00002,.,45.1,26,1,0,35.5,13.01,0.00,0.00
15min,AgWx,beryljct,423,30MAR2019:06:30:00,25.3,12.54,28.0,27.1,27.2,27.5,26.9,87,87,86,0.432,23.7,24.2,23.4,2.806,1.7,354,46,3.2,0.00006,0.00008,.,45.0,25,5,0,35.6,13.01,0.00,0.00
15min,AgWx,beryljct,423,30MAR2019:06:45:00,25.4,12.74,27.9,27.0,26.4,27.2,25.6,87,88,85,0.439,23.0,24.0,21.8,1.644,1.9,337,0.9,2.8,0.00016,0.00019,.,44.9,25,34,0,35.8,13.01,0.00,0.00
15min,AgWx,beryljct,423,30MAR2019:07:00:00,25.8,12.79,27.4,27.1,26.9,27.2,26.5,87,88,86,0.434,23.6,24.1,23.0,0.68,1.6,333,5.9,2.9,0.00029,0.00033,.,44.8,25,78,0,37.3,13.01,0.00,0.00
15min,AgWx,beryljct,423,30MAR2019:07:15:00,26.8,12.83,27.8,27.2,27.1,27.4,26.9,87,87,86,0.438,23.7,24.1,23.4,0.68,0.6,345,5.0,1.9,0.00041,0.00045,.,44.8,25,122,0,43.8,13.01,0.00,0.00
15min,AgWx,beryljct,423,30MAR2019:07:30:00,28.3,12.9,28.9,28.4,27.8,28.6,27.3,87,88,85,0.447,24.3,24.9,24.0,2.521,1.1,346,21,3.3,0.00057,0.00062,.,44.7,25,170,0,49.4,13.01,0.00,0.00
15min,AgWx,beryljct,423,30MAR2019:07:45:00,30.1,13.05,30.7,30.3,29.4,30.3,28.4,84,85,82,0.469,25.1,25.7,24.4,2.499,2.5,354,8.6,4.3,0.00074,0.00083,.,44.6,25,220,0,48.7,13.01,0.00,0.00
15min,AgWx,beryljct,423,30MAR2019:08:00:00,31.9,13.34,31.7,31.6,30.9,31.7,30.3,81,83,79,0.476,25.7,26.4,25.2,2.389,2.3,9.2,16,4.3,0.00095,0.00106,.,44.5,26,272,0,52.2,13.01,0.00,0.00
15min,AgWx,beryljct,423,30MAR2019:08:15:00,34.0,13.78,34.2,33.8,32.7,33.8,31.5,78,80,76,0.500,26.6,27.2,25.7,2.631,2.1,32,10,4.1,0.00119,0.00132,.,44.5,25,326,0,58.5,13.01,0.00,0.00
15min,AgWx,beryljct,423,30MAR2019:08:30:00,36.0,14.69,36.0,35.6,35.1,35.9,33.8,74,77,72,0.513,27.8,28.8,27.0,6.423,5.1,43,14,9.0,0.00141,0.00164,.,44.4,25,381,0,56.5,13.00,0.00,0.00
15min,AgWx,beryljct,423,30MAR2019:08:45:00,37.9,14.67,37.2,37.0,36.2,37.3,35.7,72,75,70,0.523,28.1,29.4,27.4,5.152,6.9,52,13,10.0,0.00161,0.00191,.,44.3,25,435,0,55.4,13.01,0.00,0.00
15min,AgWx,beryljct,423,30MAR2019:09:00:00,39.7,14.63,39.3,38.2,37.6,38.4,37.0,68,71,65,0.516,28.1,29.0,27.1,5.568,6.2,30,19,8.8,0.00189,0.00222,.,44.2,25,485,0,58.2,13.00,0.00,0.00
15min,AgWx,beryljct,423,30MAR2019:09:15:00,41.4,14.64,40.0,39.8,39.0,39.8,38.1,64,66,61,0.532,27.9,29.0,26.5,10.33,8.2,22,14,12.7,0.00213,0.00256,.,44.2,25,534,0,58.5,13.01,0.00,0.00
15min,AgWx,beryljct,423,30MAR2019:09:30:00,42.9,14.6,41.5,41.2,40.3,41.3,39.6,62,64,59,0.532,28.1,29.1,27.1,10.92,9.8,34,13,13.3,0.00233,0.00286,.,44.1,25,577,0,58.9,13.00,0.00,0.00
15min,AgWx,beryljct,423,30MAR2019:09:45:00,44.3,14.54,42.0,41.7,41.5,42.4,40.7,59,62,56,0.502,28.3,30.0,27.1,11.77,10.8,38,13,17.3,0.00259,0.00320,.,44.0,25,633,0,60.5,13.01,0.00,0.00
15min,AgWx,beryljct,423,30MAR2019:10:00:00,45.6,14.56,42.2,42.2,42.3,42.9,41.6,57,59,55,0.511,28.2,29.2,27.1,13.55,12.3,55,11,17.9,0.00276,0.00344,.,44.0,25,667,0,60.5,13.00,0.00,0.00
15min,AgWx,beryljct,423,30MAR2019:10:15:00,46.4,14.49,43.2,43.1,42.6,43.7,41.4,56,58,53,0.506,27.9,29.8,26.7,10.06,11.4,52,15,15.3,0.00290,0.00359,.,43.9,25,688,0,60.4,13.00,0.00,0.00
15min,AgWx,beryljct,423,30MAR2019:10:30:00,47.3,14.56,45.0,43.9,43.6,44.3,42.6,54,57,49,0.515,27.8,29.4,25.5,10.17,10.9,53,15,15.6,0.00322,0.00395,.,43.9,25,756,0,63.5,13.00,0.00,0.00
15min,AgWx,beryljct,423,30MAR2019:10:45:00,48.2,14.44,44.3,44.3,44.4,45.2,43.9,52,56,48,0.506,28.0,29.6,25.6,13.92,11.5,63,11,17.1,0.00346,0.00425,.,43.8,25,808,0,64.6,13.00,0.00,0.00
15min,AgWx,beryljct,423,30MAR2019:11:00:00,49.0,14.03,44.4,46.1,44.9,46.5,44.2,51,55,48,0.545,27.9,31.4,25.8,11.62,11.0,57,17,14.7,0.00372,0.00454,.,43.8,25,872,0,65.9,12.99,0.00,0.00
15min,AgWx,beryljct,423,30MAR2019:11:15:00,49.8,14.05,48.1,46.4,45.4,46.5,44.1,49,53,45,0.513,27.5,29.9,24.6,10.15,10.1,36,16,17.5,0.00354,0.00434,.,43.8,25,778,0,65.8,12.99,0.00,0.00
15min,AgWx,beryljct,423,30MAR2019:11:30:00,50.7,14.01,46.0,45.1,46.1,46.9,45.0,47,50,43,0.487,26.7,29.0,24.3,13.64,12.6,65,15,18.8,0.00406,0.00503,.,43.8,25,916,0,66.6,12.99,0.00,0.00
15min,AgWx,beryljct,423,30MAR2019:11:45:00,51.2,13.97,45.8,46.8,46.3,47.3,45.0,46,50,42,0.501,26.8,29.3,24.4,11.95,12.8,61,13,18.3,0.00392,0.00489,.,43.7,25,885,0,64.7,12.98,0.00,0.00
15min,AgWx,beryljct,423,30MAR2019:12:00:00,51.9,13.99,47.6,47.1,46.7,47.6,45.9,45,50,40,0.500,26.4,29.7,23.6,8.51,11.8,59,15,18.3,0.00434,0.00533,.,43.7,25,972,0,67.3,12.98,0.00,0.00
15min,AgWx,beryljct,423,30MAR2019:12:15:00,52.6,14.01,47.8,47.2,47.2,48.1,46.5,45,50,40,0.513,27.1,30.5,23.6,8.4,10.7,54,15,17.5,0.00437,0.00532,.,43.7,25,960,0,68.0,12.98,0.00,0.00
15min,AgWx,beryljct,423,30MAR2019:12:30:00,53.2,13.95,47.4,48.7,47.7,48.8,47.1,44,49,36,0.523,27.0,30.2,21.9,14.53,11.4,59,29,19.3,0.00446,0.00546,.,43.8,25,970,0,68.3,12.98,0.00,0.00
15min,AgWx,beryljct,423,30MAR2019:12:45:00,53.6,13.99,46.4,46.8,48.1,49.1,46.8,41,45,37,0.449,25.2,28.3,22.5,16.59,12.1,29,13,18.6,0.00382,0.00488,.,43.8,25,758,0,65.1,12.98,0.00,0.00
15min,AgWx,beryljct,423,30MAR2019:13:00:00,53.3,13.94,48.4,48.5,47.5,48.5,46.3,37,43,30,0.362,22.3,25.7,17.3,9.78,11.0,23,17,16.2,0.00431,0.00539,.,43.8,25,910,0,64.3,12.98,0.00,0.00
15min,AgWx,beryljct,423,30MAR2019:13:15:00,54.1,13.95,49.7,49.0,48.7,49.9,47.5,39,44,32,0.494,24.5,28.0,20.2,13.13,9.3,57,27,13.5,0.00496,0.00598,.,43.8,25,1032,0,70.2,12.97,0.00,0.00
15min,AgWx,beryljct,423,30MAR2019:13:30:00,54.7,13.93,47.6,48.1,48.4,49.5,47.6,38,42,28,0.325,23.6,27.5,16.9,7.432,10.0,54,25,17.3,0.00348,0.00447,.,43.9,25,653,0,63.2,12.97,0.00,0.00
15min,AgWx,beryljct,423,30MAR2019:13:45:00,55.1,13.9,47.7,48.3,49.1,50.8,48.1,35,41,29,0.351,22.6,27.6,17.0,7.782,9.6,47,26,14.8,0.00451,0.00557,.,44.0,25,896,0,67.1,12.97,0.00,0.00
15min,AgWx,beryljct,423,30MAR2019:14:00:00,55.4,13.91,47.9,48.1,48.8,50.3,47.6,34,37,30,0.396,21.8,24.6,17.9,9.14,9.3,44,18,14.6,0.00342,0.00441,.,44.0,25,627,0,62.6,12.97,0.00,0.00
15min,AgWx,beryljct,423,30MAR2019:14:15:00,54.8,13.94,50.5,49.3,48.6,49.6,47.7,35,39,31,0.430,21.9,25.6,18.2,11.49,10.2,34,18,15.1,0.00316,0.00418,.,44.1,25,559,0,59.0,12.97,0.00,0.00
15min,AgWx,beryljct,423,30MAR2019:14:30:00,54.5,13.95,49.2,48.9,48.9,49.3,48.5,33,37,27,0.324,20.8,24.0,16.2,12.14,10.5,26,19,15.7,0.00315,0.00422,.,44.2,25,547,0,59.1,12.97,0.00,0.00
15min,AgWx,beryljct,423,30MAR2019:14:45:00,55.0,13.89,48.8,48.5,49.7,50.6,48.5,32,37,27,0.355,20.9,25.5,16.7,11.42,9.4,47,24,14.6,0.00346,0.00450,.,44.3,25,632,0,62.7,12.96,0.00,0.00
15min,AgWx,beryljct,423,30MAR2019:15:00:00,54.4,13.93,48.9,48.8,48.5,49.0,48.1,31,35,26,0.397,19.5,22.5,14.9,11.29,9.2,47,21,20.2,0.00228,0.00323,.,44.4,25,305,0,56.8,12.97,0.00,0.00
15min,AgWx,beryljct,423,30MAR2019:15:15:00,53.8,13.98,48.8,49.5,49.2,49.8,48.8,28,33,26,0.337,17.3,21.1,15.2,7.936,10.0,8.2,10,15.2,0.00272,0.00380,.,44.5,25,417,0,56.7,12.97,0.00,0.00
15min,AgWx,beryljct,423,30MAR2019:15:30:00,54.8,13.98,52.5,52.1,50.8,52.4,49.3,27,30,26,0.354,18.2,21.3,16.4,10.39,9.6,350,23,14.8,0.00430,0.00548,.,44.6,25,794,0,63.8,12.96,0.00,0.00
15min,AgWx,beryljct,423,30MAR2019:15:45:00,55.6,13.86,52.1,50.5,50.3,52.1,49.1,28,34,24,0.365,18.5,21.8,15.0,6.752,9.1,25,28,16.1,0.00314,0.00421,.,44.7,25,549,0,60.5,12.96,0.00,0.00
15min,AgWx,beryljct,423,30MAR2019:16:00:00,56.1,13.87,49.9,50.5,50.1,51.1,49.1,30,38,28,0.395,20.1,25.2,17.2,4.165,9.9,22,18,18.6,0.00332,0.00442,.,44.8,25,590,0,59.5,12.96,0.00,0.00
15min,AgWx,beryljct,423,30MAR2019:16:15:00,55.6,13.87,51.1,49.9,49.7,50.6,49.1,27,34,25,0.312,17.2,23.1,15.4,9.16,8.1,6.9,19,12.9,0.00205,0.00297,.,44.9,25,314,0,54.4,12.96,0.00,0.00
15min,AgWx,beryljct,423,30MAR2019:16:30:00,55.7,13.87,50.3,50.2,50.4,51.3,49.8,27,33,24,0.315,17.9,22.2,15.0,5.678,7.1,4.0,36,11.5,0.00309,0.00402,.,45.0,25,556,0,57.7,12.96,0.00,0.00
15min,AgWx,beryljct,423,30MAR2019:16:45:00,56.5,13.83,50.4,50.2,50.6,51.7,50.0,29,34,25,0.379,19.5,23.7,15.8,9.29,11.6,45,30,18.2,0.00333,0.00456,.,45.1,25,561,0,58.4,12.96,0.01,0.00
15min,AgWx,beryljct,423,30MAR2019:17:00:00,55.2,13.95,50.5,49.0,48.5,50.2,47.9,29,31,26,0.327,17.6,20.5,15.0,7.125,9.4,51,18,14.2,0.00141,0.00235,.,45.2,25,159,0,51.4,12.96,0.00,0.00
15min,AgWx,beryljct,423,30MAR2019:17:15:00,54.4,13.9,49.7,50.0,50.0,50.5,49.2,26,30,25,0.364,16.6,19.5,15.4,10.46,10.6,5.4,13,15.0,0.00253,0.00367,.,45.3,25,380,0,53.4,12.96,0.00,0.00
15min,AgWx,beryljct,423,30MAR2019:17:30:00,53.5,13.42,49.2,49.0,48.8,49.9,48.4,29,32,26,0.323,18.1,20.0,16.0,7.41,8.3,21,12,14.8,0.00123,0.00210,.,45.3,26,140,0,51.4,12.96,0.00,0.00
15min,AgWx,beryljct,423,30MAR2019:17:45:00,52.4,14.02,49.6,49.4,49.0,49.5,48.9,27,29,26,0.353,16.2,18.8,15.2,11.07,7.5,5.2,16,14.6,0.00120,0.00203,.,45.4,25,149,0,51.0,12.97,0.00,0.00
15min,AgWx,beryljct,423,30MAR2019:18:00:00,51.8,13.4,47.7,47.6,48.4,49.6,47.5,38,41,30,0.443,23.6,25.2,19.3,13.2,16.2,30,8.8,21.3,0.00077,0.00087,.,45.5,25,186,0,51.1,12.97,0.00,0.00
15min,AgWx,beryljct,423,30MAR2019:18:15:00,50.9,13.26,47.5,47.1,47.2,47.6,47.0,40,42,38,0.422,24.0,25.2,23.0,16.33,13.8,20,10,18.4,0.00060,0.00069,.,45.6,25,79,0,49.1,12.97,0.00,0.00
15min,AgWx,beryljct,423,30MAR2019:18:30:00,49.7,13.17,46.2,46.0,46.6,47.2,45.9,39,42,38,0.427,23.0,24.1,22.4,8.94,10.3,14,8.8,17.7,0.00048,0.00058,.,45.6,25,34,0,46.9,12.97,0.00,0.00
15min,AgWx,beryljct,423,30MAR2019:18:45:00,48.3,13.12,45.1,44.6,45.3,46.1,44.6,42,43,40,0.433,23.6,24.1,23.2,6.467,7.5,13,8.5,11.5,0.00033,0.00042,.,45.7,25,17,0,44.5,12.97,0.00,0.00
15min,AgWx,beryljct,423,30MAR2019:19:00:00,46.7,13.1,42.0,42.3,43.5,44.7,42.3,45,49,43,0.445,23.8,24.4,23.3,6.686,6.3,21,9.1,8.8,0.00023,0.00031,.,45.8,26,6,0,42.4,12.97,0.00,0.00
15min,AgWx,beryljct,423,30MAR2019:19:15:00,44.9,13.08,42.1,41.2,41.5,42.3,41.1,50,51,49,0.442,24.2,24.5,24.0,8.13,6.2,33,5.1,8.1,0.00018,0.00024,.,45.8,25,1,0,40.2,12.97,0.00,0.00
15min,AgWx,beryljct,423,30MAR2019:19:30:00,43.4,13.07,42.0,41.4,41.0,41.4,40.7,50,52,49,0.435,24.0,24.4,23.8,5.897,5.8,18,9.6,7.1,0.00016,0.00022,.,45.9,25,0,0,39.6,12.97,0.00,0.00
15min,AgWx,beryljct,423,30MAR2019:19:45:00,42.6,13.06,41.2,40.7,41.2,41.5,40.7,50,52,49,0.451,24.2,24.7,23.7,6.774,6.8,6.2,7.6,8.7,0.00019,0.00026,.,46.0,25,0,0,39.9,12.98,0.00,0.00
15min,AgWx,beryljct,423,30MAR2019:20:00:00,41.9,13.05,40.4,39.9,40.4,40.8,39.9,54,55,52,0.462,24.9,25.2,24.6,5.502,5.5,4.7,8.0,6.9,0.00013,0.00018,.,46.0,25,0,0,39.0,12.98,0.00,0.00
15min,AgWx,beryljct,423,30MAR2019:20:15:00,40.9,12.89,35.5,35.0,37.5,40.0,34.9,59,64,55,0.438,24.5,25.3,23.6,5.02,4.4,341,17,5.8,0.00005,0.00008,.,46.0,25,0,0,36.7,12.98,0.00,0.00
15min,AgWx,beryljct,423,30MAR2019:20:30:00,39.2,13,35.5,35.2,35.1,36.0,34.6,63,64,62,0.436,23.9,24.5,23.3,1.403,2.6,337,9.6,5.0,-0.00005,-0.00005,.,46.1,25,0,0,35.5,12.98,0.00,0.00
15min,AgWx,beryljct,423,30MAR2019:20:45:00,37.7,12.99,35.6,35.2,35.2,35.4,34.9,63,64,63,0.443,24.0,24.2,23.7,2.499,1.9,324,17,2.9,-0.00009,-0.00011,.,46.1,26,0,0,35.7,12.98,0.00,0.00
15min,AgWx,beryljct,423,30MAR2019:21:00:00,36.7,12.99,35.5,35.6,35.4,36.1,34.5,64,66,62,0.441,24.3,25.0,23.7,3.069,3.6,303,17,5.0,-0.00000,0.00001,.,46.1,26,0,0,35.6,12.99,0.00,0.00
15min,AgWx,beryljct,423,30MAR2019:21:15:00,35.9,12.97,33.6,34.2,34.8,35.6,34.2,64,65,62,0.433,23.8,24.2,23.5,0.088,1.4,352,16,3.5,-0.00013,-0.00016,.,46.2,25,0,0,35.5,12.99,0.00,0.00
15min,AgWx,beryljct,423,30MAR2019:21:30:00,35.2,12.97,35.7,35.0,34.9,35.3,34.0,64,66,63,0.437,24.0,24.5,23.4,1.622,1.9,356,9.6,3.2,-0.00010,-0.00012,.,46.2,25,0,0,35.7,12.99,0.00,0.00
15min,AgWx,beryljct,423,30MAR2019:21:45:00,34.7,12.94,34.6,35.0,34.9,35.4,34.3,63,65,62,0.432,23.7,24.0,23.2,0,0.9,355,9.4,2.6,-0.00017,-0.00024,.,46.2,25,0,0,35.5,12.99,0.00,0.00
15min,AgWx,beryljct,423,30MAR2019:22:00:00,34.2,12.94,35.3,34.2,34.5,35.0,34.2,64,65,63,0.430,23.6,24.0,23.1,2.148,0.5,324,18,2.2,-0.00021,-0.00031,.,46.2,25,0,0,35.7,12.99,0.00,0.00
15min,AgWx,beryljct,423,30MAR2019:22:15:00,33.8,12.94,35.4,34.7,34.7,35.5,33.7,65,66,63,0.443,24.0,24.6,22.8,1.491,1.5,6.2,53,3.6,-0.00012,-0.00015,.,46.2,25,0,0,35.7,12.99,0.00,0.00
15min,AgWx,beryljct,423,30MAR2019:22:30:00,33.4,12.92,34.6,33.7,33.9,34.8,32.9,67,69,65,0.440,23.9,24.5,23.1,0.899,1.4,9.1,13,2.0,-0.00014,-0.00018,.,46.2,25,0,0,35.4,12.99,0.00,0.00
15min,AgWx,beryljct,423,30MAR2019:22:45:00,33.1,12.92,34.7,34.1,34.1,34.2,33.7,67,67,66,0.443,24.2,24.4,24.0,1.622,0.9,355,0.0,1.7,-0.00018,-0.00025,.,46.2,25,0,0,35.6,12.99,0.00,0.00
15min,AgWx,beryljct,423,30MAR2019:23:00:00,32.8,12.9,34.6,33.9,33.5,34.2,33.0,68,69,66,0.452,24.2,24.7,23.3,3.223,1.8,338,13,3.2,-0.00011,-0.00013,.,46.1,25,0,0,35.6,13.00,0.00,0.00
15min,AgWx,beryljct,423,30MAR2019:23:15:00,32.6,12.76,34.1,33.5,33.8,34.1,33.3,69,71,68,0.459,24.7,25.1,24.2,0.899,2.3,324,17,3.5,-0.00008,-0.00009,.,46.1,25,0,0,35.9,13.00,0.00,0.00
15min,AgWx,beryljct,423,30MAR2019:23:30:00,32.3,12.89,34.5,33.3,33.4,33.7,33.1,71,72,70,0.461,25.0,25.4,24.3,2.061,1.9,333,24,3.0,-0.00011,-0.00013,.,46.1,25,0,0,35.5,13.00,0.00,0.00
15min,AgWx,bigpiney,439,30MAR2019:00:00:00,30.6,12.66,26.7,26.4,26.5,26.7,26.4,87,87,87,0.421,23.1,23.4,22.9,9.78,10.6,177,5.2,14.2,0.00002,0.00003,31.4,31.4,19,0,0,0.0,0.51,0.00,0.00
15min,AgWx,bigpiney,439,30MAR2019:00:15:00,30.5,12.65,26.5,26.2,26.3,26.4,26.2,87,88,87,0.422,23.0,23.1,22.9,8,9.5,183,5.5,13.2,0.00001,0.00002,31.4,31.4,19,0,0,0.0,0.51,0.00,0.00
15min,AgWx,bigpiney,439,30MAR2019:00:30:00,30.4,12.64,26.5,26.1,26.1,26.2,26.0,88,89,88,0.422,23.1,23.2,23.0,6.533,7.8,183,5.2,9.6,-0.00000,0.00000,31.4,31.5,19,0,0,0.0,0.51,0.00,0.00
15min,AgWx,bigpiney,439,30MAR2019:00:45:00,30.3,12.64,26.4,26.1,26.1,26.2,26.0,88,88,88,0.423,23.0,23.2,23.0,8.77,7.8,187,5.5,10.1,-0.00000,0.00000,31.4,31.6,19,0,0,0.0,0.51,0.00,0.00
15min,AgWx,bigpiney,439,30MAR2019:01:00:00,30.2,12.63,26.2,25.8,26.0,26.1,25.8,88,89,88,0.419,23.0,23.2,22.8,8.97,8.5,181,5.3,10.7,0.00000,0.00001,31.4,31.4,19,0,0,0.0,0.51,0.00,0.00
15min,AgWx,bigpiney,439,30MAR2019:01:15:00,30.1,12.63,26.1,25.7,25.8,25.9,25.7,89,89,88,0.419,22.8,23.0,22.8,7.125,7.6,178,4.7,9.2,-0.00001,0.00000,31.4,31.5,19,0,0,0.0,0.51,0.00,0.00
15min,AgWx,bigpiney,439,30MAR2019:01:30:00,29.9,12.61,26.0,25.7,25.7,25.8,25.6,89,89,89,0.419,22.9,23.0,22.8,6.664,7.2,182,5.1,8.4,-0.00001,-0.00001,31.4,31.5,19,0,0,0.0,0.51,0.00,0.00
15min,AgWx,bigpiney,439,30MAR2019:01:45:00,29.8,12.61,26.0,25.7,25.7,25.8,25.6,89,89,88,0.416,22.8,22.9,22.7,9.19,8.5,182,5.6,10.7,-0.00000,0.00001,31.4,31.5,19,0,0,0.0,0.51,0.00,0.00
15min,AgWx,bigpiney,439,30MAR2019:02:00:00,29.7,12.61,25.4,25.1,25.4,25.7,25.1,87,88,87,0.401,22.2,22.7,21.8,12.52,11.8,180,4.9,15.9,0.00002,0.00003,31.4,31.4,19,0,0,0.0,0.51,0.00,0.00
15min,AgWx,bigpiney,439,30MAR2019:02:15:00,29.5,12.59,25.3,25.0,25.1,25.1,25.0,88,88,87,0.403,21.9,22.1,21.7,17.38,12.0,176,5.0,17.4,0.00002,0.00003,31.4,31.4,19,0,0,0.0,0.51,0.00,0.00
15min,AgWx,bigpiney,439,30MAR2019:02:30:00,29.3,12.58,24.3,24.1,24.4,25.0,24.1,86,88,86,0.380,20.9,21.9,20.5,14.07,15.0,170,5.8,19.4,0.00004,0.00004,31.4,31.5,20,0,0,0.0,0.51,0.00,0.00
15min,AgWx,bigpiney,439,30MAR2019:02:45:00,28.9,12.57,23.9,23.7,23.9,24.1,23.7,87,87,86,0.376,20.4,20.5,20.3,13.83,12.7,169,5.4,16.7,0.00003,0.00003,31.4,31.5,19,0,0,0.0,0.51,0.00,0.00
15min,AgWx,bigpiney,439,30MAR2019:03:00:00,28.6,12.56,23.8,23.4,23.6,23.7,23.4,87,88,86,0.376,20.3,20.4,20.2,15.72,12.2,169,5.2,15.7,0.00002,0.00003,31.4,31.5,19,0,0,0.0,0.51,0.00,0.00
15min,AgWx,bigpiney,439,30MAR2019:03:15:00,28.3,12.56,23.8,23.3,23.3,23.5,23.2,87,88,87,0.374,20.1,20.4,19.8,10.87,11.9,171,6.5,15.8,0.00002,0.00003,31.4,31.4,19,0,0,0.0,0.51,0.00,0.00
15min,AgWx,bigpiney,439,30MAR2019:03:30:00,28.1,12.55,23.6,23.3,23.4,23.5,23.3,87,88,86,0.368,20.1,20.3,19.8,9.19,10.6,178,3.9,13.4,0.00002,0.00002,31.4,31.6,19,0,0,0.0,0.51,0.00,0.00
15min,AgWx,bigpiney,439,30MAR2019:03:45:00,27.8,12.53,23.1,22.7,23.0,23.3,22.6,86,86,86,0.358,19.4,19.8,19.1,9.36,9.9,179,3.7,11.8,0.00002,0.00003,31.4,31.5,19,0,0,0.0,0.51,0.00,0.00
15min,AgWx,bigpiney,439,30MAR2019:04:00:00,27.5,12.52,22.8,22.3,22.4,22.7,22.2,86,86,85,0.351,18.8,19.2,18.5,8.48,8.4,183,4.2,10.4,0.00001,0.00002,31.4,31.5,19,0,0,0.0,0.51,0.00,0.00
15min,AgWx,bigpiney,439,30MAR2019:04:15:00,27.1,12.51,23.0,22.5,22.5,22.6,22.3,86,87,86,0.356,18.9,19.1,18.7,9.23,9.1,177,3.8,11.0,0.00001,0.00002,31.4,31.5,19,0,0,0.0,0.51,0.00,0.00
15min,AgWx,bigpiney,439,30MAR2019:04:30:00,26.9,12.49,23.4,22.8,22.7,22.8,22.5,86,86,85,0.357,19.0,19.1,18.9,12.61,9.9,179,3.5,13.2,0.00002,0.00003,31.4,31.5,19,0,0,0.0,0.51,0.00,0.00
15min,AgWx,bigpiney,439,30MAR2019:04:45:00,26.8,12.48,23.3,22.9,22.9,23.1,22.8,85,86,84,0.353,19.0,19.3,18.8,10.33,11.5,179,4.5,13.8,0.00003,0.00004,31.4,31.5,19,0,0,0.0,0.51,0.00,0.00
15min,AgWx,bigpiney,439,30MAR2019:05:00:00,26.8,12.46,23.1,22.7,22.8,23.0,22.7,84,84,84,0.350,18.7,18.9,18.6,8.81,9.4,174,4.2,12.3,0.00002,0.00003,31.4,31.4,19,0,0,0.0,0.51,0.00,0.00
15min,AgWx,bigpiney,439,30MAR2019:05:15:00,26.7,12.45,22.9,22.7,22.7,22.8,22.6,83,85,82,0.341,18.4,18.7,18.0,8.44,10.3,175,5.8,13.6,0.00003,0.00004,31.4,31.5,19,0,0,0.0,0.51,0.00,0.00
15min,AgWx,bigpiney,439,30MAR2019:05:30:00,26.6,12.42,22.6,22.3,22.5,22.7,22.3,82,82,81,0.335,17.7,18.0,17.6,7.147,9.2,184,4.4,12.3,0.00003,0.00004,31.4,31.5,19,0,0,0.0,0.51,0.00,0.00
15min,AgWx,bigpiney,439,30MAR2019:05:45:00,26.5,12.42,22.8,22.4,22.3,22.5,22.3,82,82,81,0.335,17.6,17.7,17.6,7.432,7.6,189,4.4,9.8,0.00002,0.00003,31.4,31.5,19,0,0,0.0,0.51,0.00,0.00
15min,AgWx,bigpiney,439,30MAR2019:06:00:00,26.4,12.4,22.8,22.4,22.4,22.6,22.4,81,82,81,0.334,17.6,17.7,17.5,5.875,7.8,189,3.6,9.1,0.00002,0.00003,31.4,31.5,19,1,0,0.0,0.51,0.00,0.00
15min,AgWx,bigpiney,439,30MAR2019:06:15:00,26.3,12.39,23.0,22.5,22.3,22.5,22.3,82,82,81,0.335,17.6,17.7,17.5,5.897,6.0,191,6.5,7.3,0.00001,0.00002,31.4,31.4,19,5,0,0.0,0.51,0.00,0.00
15min,AgWx,bigpiney,439,30MAR2019:06:30:00,26.3,12.39,22.7,22.4,22.5,22.6,22.3,82,83,81,0.339,17.7,17.9,17.6,6.555,5.7,182,3.7,6.7,-0.00007,-0.00000,31.4,31.5,19,18,0,0.0,0.51,0.00,0.00
15min,AgWx,bigpiney,439,30MAR2019:06:45:00,26.3,12.4,23.4,23.0,22.7,23.0,22.4,83,83,82,0.348,18.1,18.5,17.8,8.68,8.2,182,5.8,11.0,0.00005,0.00015,31.4,31.5,19,38,0,0.0,0.51,0.00,0.00
15min,AgWx,bigpiney,439,30MAR2019:07:00:00,26.4,12.4,23.5,23.1,23.1,23.2,23.0,82,83,80,0.341,18.3,18.6,18.0,12.3,11.2,189,5.5,13.7,0.00019,0.00032,31.4,31.5,19,62,0,0.0,0.51,0.00,0.00
15min,AgWx,bigpiney,439,30MAR2019:07:15:00,26.6,12.39,23.4,23.0,23.1,23.3,23.0,80,80,79,0.338,17.8,18.0,17.7,11.95,11.6,187,4.4,14.4,0.00029,0.00044,31.4,31.5,19,99,0,0.0,0.51,0.00,0.00
15min,AgWx,bigpiney,439,30MAR2019:07:30:00,26.9,12.41,23.5,23.1,23.0,23.2,23.0,80,81,79,0.337,17.8,18.0,17.7,10.3,10.3,188,4.6,12.4,0.00037,0.00051,31.4,31.4,19,145,0,0.0,0.51,0.00,0.00
15min,AgWx,bigpiney,439,30MAR2019:07:45:00,27.2,12.64,23.8,23.5,23.3,23.5,23.1,79,80,78,0.337,17.7,18.0,17.5,11.31,10.9,188,4.4,13.8,0.00048,0.00065,31.4,31.4,19,196,0,0.0,0.51,0.00,0.00
15min,AgWx,bigpiney,439,30MAR2019:08:00:00,27.7,13.47,24.0,23.7,23.6,23.8,23.4,79,80,78,0.346,18.2,18.5,17.7,11.47,10.7,188,4.9,12.8,0.00064,0.00081,31.4,31.5,19,283,0,0.0,0.51,0.00,0.00
15min,AgWx,bigpiney,439,30MAR2019:08:15:00,28.3,13.67,24.2,23.9,23.7,23.9,23.6,78,80,77,0.340,17.9,18.3,17.6,9.78,11.4,182,4.4,14.8,0.00072,0.00091,31.4,31.5,19,299,0,0.0,0.51,0.00,0.00
15min,AgWx,bigpiney,439,30MAR2019:08:30:00,28.9,14.01,24.5,24.4,24.1,24.4,23.9,77,78,77,0.344,18.0,18.4,17.7,12.47,9.8,180,5.0,12.7,0.00080,0.00099,31.4,31.4,19,315,0,0.0,0.51,0.00,0.00